Location: Frizzleburg
(41.0764°N, 80.4548°W)
Time: 05:22:10
(UTC+00:00)

Cosmos 1500 Rocket - Pass Details

Date: 17 November 2019
Orbit: 602 x 632 km, 82.5° (Epoch: 14 December)

Event Time Altitude Azimuth Distance (km) Brightness Sun altitude
Rises 11:21:24 0° 191° (S) 2,911 7.1 -9.7°
Reaches altitude 10° 11:23:38 10° 194° (SSW) 2,007 6.2 -9.3°
Maximum altitude 11:28:05 72° 278° (W) 666 3.5 -8.5°
Drops below altitude 10° 11:32:32 10° 4° (N) 2,013 6.0 -7.7°
Sets 11:34:47 0° 6° (N) 2,920 6.9 -7.3°
